LVKCH SADF-SAEZ

Flight info

Callsign LVKCH
Flight time 0h 21m
Altitude 5000
Route PAL DCT ARSOT
Aircraft SR22/L-SDGRY/S

Departure

Time 2026-05-06 22:30
Airport San Fernando Airport (SADF)

Arrival

Time 2026-05-06 22:52
Airport Ezeiza International Airport - Ministro Pistarini (SAEZ)
Time Latitude Longitude Altitude Speed Heading
2026-05-06 22:15 -34.45730 -58.58794 22 ft 0 kts 334°
2026-05-06 22:27 -34.45730 -58.58795 22 ft 1 kts 335°
2026-05-06 22:27 -34.45696 -58.58820 22 ft 11 kts 269°
2026-05-06 22:28 -34.45741 -58.58933 22 ft 19 kts 242°
2026-05-06 22:28 -34.45813 -58.59098 22 ft 25 kts 243°
2026-05-06 22:28 -34.45899 -58.59301 22 ft 29 kts 242°
2026-05-06 22:28 -34.45991 -58.59516 22 ft 27 kts 243°
2026-05-06 22:29 -34.46032 -58.59624 22 ft 10 kts 274°
2026-05-06 22:29 -34.45961 -58.59675 22 ft 16 kts 19°
2026-05-06 22:29 -34.45938 -58.59656 22 ft 0 kts 41°
2026-05-06 22:29 -34.45871 -58.59578 22 ft 47 kts 44°
2026-05-06 22:30 -34.45500 -58.59153 87 ft 88 kts 44°
2026-05-06 22:30 -34.45048 -58.58619 349 ft 91 kts 44°
2026-05-06 22:30 -34.44574 -58.58123 625 ft 90 kts 43°
2026-05-06 22:30 -34.44096 -58.57617 763 ft 92 kts 42°
2026-05-06 22:31 -34.43643 -58.57103 998 ft 88 kts 40°
2026-05-06 22:31 -34.43194 -58.56591 1229 ft 89 kts 40°
2026-05-06 22:31 -34.42762 -58.56062 1500 ft 88 kts 41°
2026-05-06 22:31 -34.42342 -58.55517 1759 ft 89 kts 41°
2026-05-06 22:32 -34.41922 -58.54959 2018 ft 90 kts 38°
2026-05-06 22:32 -34.41404 -58.54835 2289 ft 82 kts 322°
2026-05-06 22:32 -34.40975 -58.55302 2536 ft 83 kts 327°
2026-05-06 22:32 -34.40518 -58.55719 2801 ft 82 kts 325°
2026-05-06 22:33 -34.40060 -58.56132 3058 ft 82 kts 324°
2026-05-06 22:33 -34.39594 -58.56540 3309 ft 83 kts 324°
2026-05-06 22:33 -34.39120 -58.56950 3563 ft 84 kts 325°
2026-05-06 22:33 -34.38779 -58.57506 3827 ft 87 kts 290°
2026-05-06 22:34 -34.38735 -58.58246 4103 ft 92 kts 266°
2026-05-06 22:34 -34.39060 -58.58949 4408 ft 102 kts 234°
2026-05-06 22:34 -34.39669 -58.59451 4664 ft 112 kts 225°
2026-05-06 22:34 -34.40364 -58.60062 4687 ft 135 kts 224°
2026-05-06 22:35 -34.41180 -58.60757 4688 ft 150 kts 222°
2026-05-06 22:35 -34.42062 -58.61487 4681 ft 160 kts 221°
2026-05-06 22:35 -34.42986 -58.62246 4677 ft 162 kts 221°
2026-05-06 22:35 -34.43917 -58.63011 4674 ft 162 kts 221°
2026-05-06 22:36 -34.44852 -58.63780 4675 ft 163 kts 221°
2026-05-06 22:36 -34.45791 -58.64556 4673 ft 163 kts 221°
2026-05-06 22:36 -34.46727 -58.65331 4674 ft 163 kts 221°
2026-05-06 22:36 -34.47667 -58.66106 4670 ft 163 kts 221°
2026-05-06 22:37 -34.48605 -58.66885 4672 ft 163 kts 221°
2026-05-06 22:37 -34.49545 -58.67664 4674 ft 164 kts 221°
2026-05-06 22:37 -34.50481 -58.68443 4675 ft 163 kts 221°
2026-05-06 22:37 -34.51418 -58.69221 4670 ft 163 kts 221°
2026-05-06 22:38 -34.52355 -58.69998 4672 ft 163 kts 221°
2026-05-06 22:38 -34.53288 -58.70774 4671 ft 163 kts 221°
2026-05-06 22:38 -34.54221 -58.71549 4672 ft 162 kts 221°
2026-05-06 22:38 -34.55151 -58.72322 4668 ft 162 kts 221°
2026-05-06 22:39 -34.56079 -58.73097 4663 ft 162 kts 221°
2026-05-06 22:39 -34.57007 -58.73867 4666 ft 162 kts 221°
2026-05-06 22:39 -34.57937 -58.74642 4667 ft 162 kts 221°
2026-05-06 22:39 -34.58865 -58.75414 4663 ft 162 kts 221°
2026-05-06 22:40 -34.59785 -58.76181 4662 ft 162 kts 221°
2026-05-06 22:40 -34.60713 -58.76953 4661 ft 162 kts 221°
2026-05-06 22:40 -34.61639 -58.77725 4663 ft 161 kts 221°
2026-05-06 22:40 -34.62560 -58.78494 4654 ft 160 kts 221°
2026-05-06 22:41 -34.64400 -58.80028 4655 ft 161 kts 221°
2026-05-06 22:41 -34.65319 -58.80794 4654 ft 160 kts 221°
2026-05-06 22:41 -34.66234 -58.81558 4654 ft 159 kts 221°
2026-05-06 22:42 -34.67148 -58.82321 4655 ft 159 kts 221°
2026-05-06 22:42 -34.68063 -58.83085 4655 ft 160 kts 221°
2026-05-06 22:42 -34.68978 -58.83850 4655 ft 160 kts 221°
2026-05-06 22:42 -34.69894 -58.84614 4652 ft 160 kts 221°
2026-05-06 22:43 -34.70812 -58.85381 4651 ft 160 kts 221°
2026-05-06 22:43 -34.71717 -58.86139 4652 ft 160 kts 221°
2026-05-06 22:43 -34.72637 -58.86897 4653 ft 161 kts 218°
2026-05-06 22:43 -34.73714 -58.87337 4641 ft 168 kts 192°
2026-05-06 22:44 -34.74917 -58.87207 4520 ft 180 kts 166°
2026-05-06 22:44 -34.76015 -58.86432 4404 ft 187 kts 138°
2026-05-06 22:44 -34.76741 -58.85123 4284 ft 188 kts 109°
2026-05-06 22:44 -34.77022 -58.83578 4163 ft 187 kts 97°
2026-05-06 22:45 -34.77268 -58.82027 4033 ft 186 kts 99°
2026-05-06 22:45 -34.77525 -58.80506 3787 ft 180 kts 99°
2026-05-06 22:45 -34.77769 -58.79029 3538 ft 175 kts 98°
2026-05-06 22:45 -34.78006 -58.77598 3286 ft 169 kts 98°
2026-05-06 22:46 -34.78219 -58.76236 2996 ft 163 kts 97°
2026-05-06 22:46 -34.78431 -58.74866 2625 ft 163 kts 97°
2026-05-06 22:46 -34.78641 -58.73526 2271 ft 162 kts 97°
2026-05-06 22:46 -34.78936 -58.72254 2216 ft 151 kts 108°
2026-05-06 22:47 -34.79197 -58.71084 2236 ft 137 kts 93°
2026-05-06 22:47 -34.79332 -58.69954 2210 ft 136 kts 96°
2026-05-06 22:47 -34.79542 -58.68849 2159 ft 136 kts 96°
2026-05-06 22:47 -34.79717 -58.67699 1923 ft 139 kts 97°
2026-05-06 22:48 -34.79899 -58.66578 1670 ft 135 kts 100°
2026-05-06 22:48 -34.80104 -58.65540 1530 ft 118 kts 97°
2026-05-06 22:48 -34.80255 -58.64599 1411 ft 109 kts 98°
2026-05-06 22:48 -34.80418 -58.63718 1287 ft 106 kts 96°
2026-05-06 22:49 -34.80559 -58.62825 1163 ft 106 kts 100°
2026-05-06 22:49 -34.80724 -58.61984 1107 ft 100 kts 97°
2026-05-06 22:49 -34.80865 -58.61117 899 ft 107 kts 98°
2026-05-06 22:49 -34.81009 -58.60228 763 ft 106 kts 98°
2026-05-06 22:50 -34.81192 -58.59366 681 ft 100 kts 99°
2026-05-06 22:50 -34.81320 -58.58593 557 ft 88 kts 97°
2026-05-06 22:50 -34.81451 -58.57899 481 ft 82 kts 97°
2026-05-06 22:50 -34.81564 -58.57223 394 ft 81 kts 94°
2026-05-06 22:51 -34.81680 -58.56545 316 ft 83 kts 98°
2026-05-06 22:51 -34.81812 -58.55854 211 ft 84 kts 95°
2026-05-06 22:51 -34.81930 -58.55176 109 ft 81 kts 97°
2026-05-06 22:51 -34.82040 -58.54592 67 ft 58 kts 96°
2026-05-06 22:52 -34.82112 -58.54190 66 ft 41 kts 102°
2026-05-06 22:52 -34.82115 -58.53896 67 ft 33 kts 60°
2026-05-06 22:52 -34.82045 -58.53804 66 ft 0 kts 46°
2026-05-06 22:52 -34.82025 -58.53779 68 ft 9 kts 44°
2026-05-06 22:53 -34.81958 -58.53701 66 ft 17 kts 35°
2026-05-06 22:53 -34.81930 -58.53663 66 ft 0 kts 46°
2026-05-06 22:54 -34.81924 -58.53655 68 ft 7 kts 49°
2026-05-06 22:54 -34.81846 -58.53662 70 ft 9 kts 333°
2026-05-06 22:54 -34.81786 -58.53697 70 ft 13 kts 335°
2026-05-06 22:54 -34.81780 -58.53701 62 ft 0 kts 334°
2026-05-06 22:56 -34.81778 -58.53702 70 ft 4 kts 334°
2026-05-06 22:57 -34.81727 -58.53731 70 ft 16 kts 334°
2026-05-06 22:57 -34.81587 -58.53716 66 ft 18 kts 40°
2026-05-06 22:57 -34.81483 -58.53636 70 ft 17 kts 24°
2026-05-06 22:57 -34.81367 -58.53592 67 ft 18 kts
2026-05-06 22:58 -34.81240 -58.53588 67 ft 19 kts 354°
2026-05-06 22:58 -34.81147 -58.53564 70 ft 14 kts 22°
2026-05-06 22:58 -34.81084 -58.53555 63 ft 12 kts 341°
2026-05-06 22:58 -34.80989 -58.53591 70 ft 17 kts 342°
2026-05-06 22:59 -34.80908 -58.53620 70 ft 19 kts 345°
2026-05-06 22:59 -34.80728 -58.53682 62 ft 21 kts 344°
2026-05-06 22:59 -34.80628 -58.53717 70 ft 22 kts 345°
2026-05-06 22:59 -34.80476 -58.53732 67 ft 22 kts
2026-05-06 23:00 -34.80343 -58.53649 69 ft 21 kts 41°
2026-05-06 23:00 -34.80242 -58.53526 67 ft 20 kts 45°
2026-05-06 23:00 -34.80144 -58.53408 67 ft 20 kts 44°
2026-05-06 23:00 -34.80050 -58.53292 64 ft 19 kts 44°
2026-05-06 23:01 -34.79959 -58.53180 69 ft 18 kts 46°
2026-05-06 23:01 -34.79870 -58.53072 67 ft 18 kts 47°
2026-05-06 23:01 -34.79786 -58.52967 69 ft 17 kts 46°
2026-05-06 23:01 -34.79734 -58.52854 69 ft 16 kts 132°
2026-05-06 23:02 -34.79822 -58.52747 64 ft 19 kts 135°
2026-05-06 23:02 -34.79922 -58.52625 69 ft 21 kts 135°
2026-05-06 23:02 -34.80008 -58.52522 69 ft 4 kts 135°
2026-05-06 23:02 -34.80008 -58.52472 69 ft 7 kts 108°
2026-05-06 23:03 -34.80010 -58.52466 69 ft 0 kts 114°